Skip to content

You are here

Board Decisions

Online NLRB decisions are offered in PDF format. Slip opinions are subject to revision before publication in bound volumes.

Unpublished Board decisions are available here.

Click here to search the Board's topical index (CiteNet).

Click here to subscribe to email delivery of Board Decisions.

Use this box to search the full text of all Board Decisions, not just those on this page.
Issuance Datesort ascending Citation Case Name Case Number
08/15/2018 366 NLRB No. 156 EYM King of Michigan, LLC d/b/a Burger King 07-CA-118835
08/14/2018 366 NLRB No. 160 American Municipal Power, Inc. 10-CA-221403
08/08/2018 366 NLRB No. 155 RIM HOSPITALITY 21-CA-137250
08/06/2018 366 NLRB No. 157 WestRock Services, Inc. 10-CA-195617
08/06/2018 366 NLRB No. 158 MUY PIZZA SOUTHEAST, LLC 15-CA-174267
08/06/2018 366 NLRB No. 142 UPMC and its subsidiary, UPMC Presbyterian Shadyside, Single Employer, d/b/a UPMC Presbyterian Hospi 06-CA-171117
08/06/2018 366 NLRB No. 154 COSTA MESA CARS, INC., D/B/A AUTONATION HONDA COSTA; MESA F/K/A POWER HONDA COSTA MESA AND AUTONATIO 21-CA-123072
08/03/2018 366 NLRB No. 152 Consolidated Communications, Inc. 16-CA-196201
08/02/2018 366 NLRB No. 147 Northrop Grumman Systems Corporation 31-CA-167294
08/02/2018 366 NLRB No. 153 Kellogg Brown & Root, LLC 31-CA-140948
08/02/2018 366 NLRB No. 143 MIKESELL'S SNACK FOOD COMPANY F/K/A MIKE-SELL'S POTATO CHIP COMPANY 09-CA-184215
08/02/2018 366 NLRB No. 151 Exeter Finance Corp. 03-CA-158382
07/31/2018 366 NLRB No. 150 KO Huts, Inc. 14-CA-164874
07/31/2018 366 NLRB No. 145 Newark Electric Corp. Newark Electric 2.0, Inc. and Colacino Industries, Inc., as a single employer 03-CA-088127
07/31/2018 366 NLRB No. 146 AMERICAN MEDICAL RESPONSE WEST 32-CA-147259
07/30/2018 366 NLRB No. 148 FALCON TRUCKING, LLC and RAGLE, INC., A Single Employer and/or Joint Employers 25-CA-132518
07/27/2018 366 NLRB No. 144 American Eagle Protective Services Corporation and Paragon Systems, Inc., Joint Employers 05-CA-126739
07/25/2018 366 NLRB No. 139 Paragon Systems, Inc. 08-CA-184044
07/25/2018 366 NLRB No. 137 Rigid Pak, Corp. 12-CA-152811
07/25/2018 366 NLRB No. 141 DirectSat USA, LLC 13-CA-176621
07/25/2018 366 NLRB No. 134 Management & Training, Corporation d/b/a Keystone Job Corp Center 04-CA-095456
07/24/2018 366 NLRB No. 138 Smith's Food & Drug Centers, Inc. d/b/a Fry's Food Stores 28-CA-022836
07/24/2018 366 NLRB No. 140 Lou's Transport, Inc. and T.K.M.S., Inc. 07-CA-102517
07/24/2018 366 NLRB No. 135 Veritas Health Services, Inc. d/b/a Chino Valley Medical Center 31-CA-029713
07/24/2018 366 NLRB No. 131 CONSTELLIUM ROLLED PRODUCTS RAVENSWOOD, LLC 09-CA-116410
07/20/2018 366 NLRB No. 136 Starbright Corporation and Andertainment Group, LLC, as joint employers 15-CA-204467
07/19/2018 366 NLRB No. 132 NORTH WEST RURAL ELECTRIC COOPERATIVE 18-CA-150605
07/19/2018 366 NLRB No. 130 PERKINS MANAGEMENT SERVICES COMPANY 13-CA-210664
07/19/2018 366 NLRB No. 133 AdvancePierre Foods, Inc. 09-CA-153966
07/18/2018 366 NLRB No. 125 MARATHON PETROLEUM CO., D/B/A CATLETTSBURG REFINING, LLC 09-CA-162710
07/17/2018 366 NLRB No. 128 The Boeing Company 19-CA-090932
07/17/2018 366 NLRB No. 127 Windsor Redding Care Center 20-CA-070465
07/12/2018 366 NLRB No. 126 DURA-LINE CORPORATION, A SUBSIDARY OF MEXICHEM 09-CA-163289
07/11/2018 366 NLRB No. 124 Green Apple Supermarket of Jamaica, Inc. 29-CA-183238
07/09/2018 366 NLRB No. 123 Theatrical Stage Employees Union Local Two ( Event Media, Inc., d/b/a Complete Crewing, Inc.) 13-CD-185979
07/03/2018 366 NLRB No. 122 Colorado Symphony Association 27-CA-140724
07/02/2018 366 NLRB No. 112 Glades Electric Cooperative, Inc. 12-CA-168580
06/29/2018 366 NLRB No. 120 Arnold Walter Nursing and Rehabilitation Center 22-CA-180557
06/29/2018 366 NLRB No. 121 Harley-Davidson Motor Company 05-CA-183791
06/28/2018 366 NLRB No. 119 Dish Network Corporation 16-CA-173719
06/25/2018 366 NLRB No. 118 Kalthia Group Hotels, Inc. and Manas Hospitality LLC d/b/a Holiday Inn Express Sacramento, a Single 20-CA-176428
06/22/2018 366 NLRB No. 117 Shamrock Foods Company 28-CA-150157
06/22/2018 366 NLRB No. 107 Shamrock Foods Company 28-CA-169970
06/22/2018 366 NLRB No. 115 Shamrock Foods Company 28-CA-161831
06/22/2018 366 NLRB No. 116 TIME WARNER CABLE NEW YORK CITY, LLC 02-CA-126860
06/21/2018 366 NLRB No. 113 VIEJAS BAND OF KUMEYAAY INDIANS D/B/A VIEJAS CASINO & RESORT 21-CA-166290
06/20/2018 366 NLRB No. 96 International Brotherhood of Teamsters, Local 385 (Walt Disney Parks and Resorts U.S., Inc. d/b/a Wa 12-CB-136934
06/18/2018 366 NLRB No. 111 UPS Supply Chain Solutions, Inc. 12-CA-159257
06/18/2018 366 NLRB No. 108 Mitsubishi Hitachi Power Systems Americas, Inc. 12-CA-188952
06/15/2018 366 NLRB No. 110 Circus Circus Casinos, Inc. d/b/a Circus Circus Las Vegas 28-CA-120975
06/14/2018 366 NLRB No. 109 Labor Plus, LLC, and its successor Wynn Las Vegas, LLC 28-CA-161779
06/13/2018 366 NLRB No. 104 AIRGAS USA LLC 09-CA-158662
06/12/2018 366 NLRB No. 103 Denton County Electric Cooperative, Inc. d/b/a Coserv Electric 16-CA-149330
06/12/2018 366 NLRB No. 106 Hard Hat Services, LLC 04-CA-196783
06/11/2018 366 NLRB No. 105 United Food and Commercial Workers Union, Local 540 (Tyson Foods) 16-CB-193820
06/07/2018 366 NLRB No. 102 J.H. Reid General Contractor 22-CA-199736
06/07/2018 366 NLRB No. 101 Bristol Industrial Corporation/C.O. Sabino Corporation, as joint employers or a single employer 04-CA-148573
06/06/2018 366 NLRB No. 94 HY-BRAND INDUSTRIAL CONTRACTORS, LTD AND BRANDT CONSTRUCTION, CO., SINGLE EMPLOYERS AND/OR JOINT EMP 25-CA-163189
06/06/2018 366 NLRB No. 93 HY-BRAND INDUSTRIAL CONTRACTORS, LTD AND BRANDT CONSTRUCTION, CO., SINGLE EMPLOYERS AND/OR JOINT EMP 25-CA-163189
06/01/2018 366 NLRB No. 100 UPS Ground Freight, Inc. 04-CA-205359
06/01/2018 366 NLRB No. 99 International Brotherhood of Teamsters, Local 25 (No Employer) 01-CB-010882
05/31/2018 366 NLRB No. 98 Kitsap Tenant Support Services, Inc. 19-CA-074715
05/24/2018 366 NLRB No. 95 PAE Aviation and Technical Services LLC 28-CA-170401
05/24/2018 366 NLRB No. 97 Michael Cetta, Inc. d/b/a Sparks Restaurant 02-CA-142626
05/21/2018 366 NLRB No. 92 AIRGAS USA LLC 09-CA-189551
05/17/2018 366 NLRB No. 91 Station GVR Acquisition, LLC d/b/a Green Valley Ranch Resort Spa Casino 28-CA-214925
05/16/2018 366 NLRB No. 89 YP Advertising & Publishing, LLC 20-CA-147219
05/16/2018 366 NLRB No. 87 FirstEnergy Generation, LLC 06-CA-163303
05/14/2018 366 NLRB No. 90 Alaris at Hamilton Park Health Care Center 22-CA-180566
05/11/2018 366 NLRB No. 88 Temple University Hospital 04-CA-174336
05/10/2018 366 NLRB No. 86 Alaris Health at Rochelle Park 22-CA-194401
05/10/2018 366 NLRB No. 84 Coastal International Security, Inc. 05-CA-193900
05/10/2018 366 NLRB No. 85 Coastal International Security, Inc. 05-CA-193920
05/09/2018 366 NLRB No. 81 Gross Electric, Inc. 03-CA-187577
05/08/2018 366 NLRB No. 83 ST. PAUL PARK REFINING CO. LLC D/B/A WESTERN REFINING 18-CA-187896
05/08/2018 366 NLRB No. 82 BRASFIELD & GORRIE LLC 09-CA-199567
05/07/2018 366 NLRB No. 80 Murray American Energy, Inc., and The Monongalia County Coal Company, a Single Employer 06-CA-169736
05/04/2018 366 NLRB No. 79 JBM Janitorial Maintenance Inc. 16-CA-201387
05/02/2018 366 NLRB No. 75 CORAL HARBOR REHABILITATION & NURSING CENTTER 22-CA-167738
05/02/2018 366 NLRB No. 76 PORTS AMERICA OUTER HARBOR, LLC, CURRENTLY KNOWN AS OUTER HARBOR TERMINAL, LLC 32-CA-110280
05/01/2018 366 NLRB No. 77 Whole Foods Market, Inc. 01-CA-096965
05/01/2018 366 NLRB No. 78 Southern Bakeries, LLC 15-CA-169007
05/01/2018 366 NLRB No. 74 INGREDION, INC., D/B/A PENFORD PRODUCTS CO. 18-CA-160654
04/27/2018 366 NLRB No. 73 Manhattan College 02-CA-201623
04/26/2018 366 NLRB No. 72 Cordua Restaurants, Inc. 16-CA-160901
04/26/2018 366 NLRB No. 71 Parkview Lounge LLC d/b/a Ascent Lounge 02-CA-178531
04/26/2018 366 NLRB No. 70 WOODCREST HEALTH CARE CENTER 22-CA-083628
04/20/2018 366 NLRB No. 63 Kapstone Paper and Packaging Corporation 19-CA-160107
04/20/2018 366 NLRB No. 67 FRANKLINTON PREPARATORY ACADEMY 09-RC-144924
04/20/2018 366 NLRB No. 64 County Concrete Corporation 22-CA-171328
04/20/2018 366 NLRB No. 62 International Union of Operating Engineers, Local 501 (GNLV Corp. d/b/a Golden Nugget Las Vegas) 28-CB-182296
04/20/2018 366 NLRB No. 65 Mexican Radio Corp. 02-CA-168989
04/20/2018 366 NLRB No. 61 Student Transportation of America 12-CA-181426
04/20/2018 366 NLRB No. 69 Taylor Motors, Inc. 10-CA-141565
04/20/2018 366 NLRB No. 68 ABLE Building Maintenance 27-CA-168632
04/20/2018 366 NLRB No. 66 LONG BEACH MEMORIAL MEDICAL CENTER INC. D/B/A LONG BEACH MEMORIAL MEDICAL CENTER & MILLER CHILDREN'S 21-CA-157007
04/13/2018 366 NLRB No. 59 WR TRANSPORT, LLC 15-CA-185397
04/13/2018 366 NLRB No. 57 Advanced Masonry Associates, LLC d/b/a Advanced Masonry Systems 12-CA-176715
04/13/2018 366 NLRB No. 60 Colorado Symphony Association 27-CA-195026
04/12/2018 366 NLRB No. 58 Station GVR Acquisition, LLC d/b/a Green Valley Ranch Resort Spa Casino 28-CA-214925
04/05/2018 366 NLRB No. 55 C.W. Wright Construction Company, LLC 05-CA-180732
04/04/2018 366 NLRB No. 56 Lucky Cab Company 28-CA-023508
04/03/2018 366 NLRB No. 51 SSA Pacific 20-CA-151433
04/03/2018 366 NLRB No. 54 East End Bus Lines, Inc. and Floyd Bus Company, Inc., A Single Employer 29-CA-188517
03/30/2018 366 NLRB No. 53 Natural Life Inc. d/b/a Heart and Weight Institute 28-CA-181573
03/29/2018 366 NLRB No. 52 Neises Construction Corp. 13-CA-210180
03/29/2018 366 NLRB No. 47 Tito Contractors, Inc. 05-CA-119008
03/29/2018 366 NLRB No. 50 Prompt Medical Transportation, Inc. d/b/a Prompt Ambulance Service, Prompt Central, Inc., and GSM Gr 13-CA-202127
03/29/2018 366 NLRB No. 49 Excalibur Charter School, Inc. 28-CA-023039
03/27/2018 366 NLRB No. 48 AT&T Services, Inc. 13-CA-185708
03/27/2018 366 NLRB No. 46 Charter Communications 07-CA-140170
03/26/2018 366 NLRB No. 45 Retro Environmental, Inc. / Green JobWorks, LLC (Joint Employers) 05-CA-199590
03/23/2018 366 NLRB No. 44 Walden Security, Inc. 14-CA-170110
03/23/2018 366 NLRB No. 43 J & K Floral USA Inc. 02-CA-185241
03/20/2018 366 NLRB No. 42 Village Red Restaurant Corp. d/b/a Waverly Restaurant 02-CA-162509
03/20/2018 366 NLRB No. 40 DirectSat USA, LLC 13-CA-176621
03/19/2018 366 NLRB No. 41 ENVIRONMENTAL CONTRACTORS, INC. AND KIELCZEWSKI CORPORATION 22-CA-089865
03/16/2018 366 NLRB No. 36 Pittsburgh Logistics Systems, Inc. d/b/a PLS Logistics Services 12-CA-189005
03/16/2018 366 NLRB No. 37 Boulder Contracting Inc. 10-CA-189876
03/15/2018 366 NLRB No. 38 LTTS Charter School, Inc., d/b/a Universal Academy 16-CA-170669
03/15/2018 366 NLRB No. 39 United States Postal Service 05-CA-180590
03/14/2018 366 NLRB No. 33 Buddy's Parking Company, LLC 13-CA-202604
03/13/2018 366 NLRB No. 34 RDM Concrete Masonry, LLC, Collective Concrete & Masonry and REMCO Concrete, LLC, alter ego. 22-CA-181515
03/13/2018 366 NLRB No. 30 Wolf Creek Nuclear Operating Corporation 14-CA-181053
03/09/2018 366 NLRB No. 31 Saint Xavier University 13-CA-204564
03/09/2018 366 NLRB No. 32 MEYER TOOL INC. 09-CA-185410
03/07/2018 366 NLRB No. 28 Crozer Chester Medical Center 04-CA-172296
03/07/2018 366 NLRB No. 29 MIKE-SELL'S POTATO CHIP COMPANY 09-CA-094143
03/05/2018 366 NLRB No. 25 Daviola Productions, LLC d/b/a Imaginarium 28-CA-204315
02/28/2018 366 NLRB No. 27 Duquesne University of the Holy Spirit 06-CA-197492
02/28/2018 366 NLRB No. 22 KHRG Employer, LLC d/b/a Hotel Burnham & Atwood Cafe 13-CA-162485
02/27/2018 366 NLRB No. 24 NEW ENGLAND COUNCIL OF CARPENTERS LOCAL 33 (New England Finish Systems) 01-CD-183789
02/27/2018 366 NLRB No. 23 OmniSource Corporation 08-CA-167138
02/26/2018 366 NLRB No. 26 HY-BRAND INDUSTRIAL CONTRACTORS, LTD AND BRANDT CONSTRUCTION, CO., SINGLE EMPLOYERS AND/OR JOINT EMP 25-CA-163189
02/20/2018 366 NLRB No. 20 International Longshoremen's Association, Local 28 (Ceres Gulf Inc.) 16-CB-181716
02/20/2018 366 NLRB No. 21 Poudre Valley Rural Electric Association, Inc. 27-CA-167119
02/16/2018 366 NLRB No. 19 LIBERTY BAKERY KITCHEN INC. 01-CA-181081
02/13/2018 366 NLRB No. 18 Cranesville Block Co., Inc. 03-CA-209124
02/08/2018 366 NLRB No. 17 Sagar, Inc. d/b/a La Mariposa Care and Rehabilitation Center 20-CA-203025
02/08/2018 366 NLRB No. 16 Ride Right, LLC 13-CA-171393
02/06/2018 366 NLRB No. 12 Apex Linen Service Inc. 28-CA-177062
02/06/2018 366 NLRB No. 13 First Student, Inc., a division of First Group America 07-CA-092212
02/05/2018 366 NLRB No. 14 Venetian Casino Resort, LLC 28-CA-016000
02/05/2018 366 NLRB No. 15 Campaign for the Restoration and Regulation of Hemp, THCF, and Presto Quality Care Corporation, as 19-CA-143377
02/02/2018 366 NLRB No. 9 Costco 05-CA-169958
02/01/2018 366 NLRB No. 6 Ashford TRS Nickel, LLC d/b/a The Sheraton Anchorage Hotel & Spa 19-CA-032761
02/01/2018 366 NLRB No. 11 The Grove at Irwin 06-CA-201738
01/29/2018 366 NLRB No. 5 EYM King of Missouri d/b/a Burger King 14-CA-188832
01/26/2018 366 NLRB No. 10 Pennsylvania Interscholastic Athletic Association, Inc. 06-CA-175817
01/25/2018 366 NLRB No. 8 Premier Environmental Solutions, LLC 14-CA-198879
01/25/2018 366 NLRB No. 7 HENDRICKSON USA, LLC 09-CA-159641
01/24/2018 366 NLRB No. 4 L.I.F. Industries a/k/a Long Island Fire Proof Door 29-CA-181174
01/23/2018 366 NLRB No. 3 International Union of Operating Engineers, Local 501 28-CB-170340
01/09/2018 366 NLRB No. 2 IronTiger Logistics, Inc. 16-CA-027543
01/04/2018 366 NLRB No. 1 PRO WORKS CONTRACTING, INC. 21-CA-120477

Connect with Us